User: anonymous   Login
Location: Olsztyn
(53.7767°N, 20.4765°E)
Time: 09:36:47
(UTC+02:00)
Language:

SR - Orbit

View from above orbital plane
View from above orbital plane
View from above satellite
View from above satellite

Ground track
Ground track

The orbit data is extracted from the following two-line orbital elements,

1 00046U 60007B   24196.88407656  .00002780  00000-0  55628-3 0  9995
2 00046  66.6921 339.7651 0194523 100.7941 261.5130 14.52124491354915
Epoch (UTC): 14 July 2024 21:13:04
Eccentricity: 0.0194523
inclination: 66.6921°
perigee height: 580 km
apogee height: 857 km
right ascension of ascending node: 339.7651°
argument of perigee: 100.7941°
revolutions per day: 14.52124491
mean anomaly at epoch: 261.5130°
orbit number at epoch: 35491

The dashed part of the orbit path shows where the satellite is in the earth's shadow,  

DLR